Iron Mountain, MI

5:28 AM CST on December 18, 2017 (GMT -0600)
Ford

Weather History for KIMT - November, 2011

Change the Weather History Date:

Saturday, November 12, 2011

  Actual Average Record
Temperature  
Mean Temperature 34 °F -  
Max Temperature 48 °F 38 °F 60 °F (1964)
Min Temperature 21 °F 22 °F 2 °F (1950)
Degree Days  
Heating Degree Days 30    
Moisture  
Dew Point 29 °F    
Average Humidity 80    
Maximum Humidity 100    
Minimum Humidity 52    
Precipitation  
Precipitation 0.00 in - - ()
Sea Level Pressure  
Sea Level Pressure 29.59 in    
Wind  
Wind Speed 4 mph (SSE)    
Max Wind Speed 8 mph    
Max Gust Speed -    
Visibility 7 miles    
Events      
Averages and records for this station are not official NWS values.
T = Trace of Precipitation, MM = Missing Value Source: NWS Daily Summary

Daily Weather History Graph

Daily Weather History Graph

Search for Another Location

Airport or City:

Trip Planner

Search our weather history database for the weather conditions in past years. The results will help you decide how hot, cold, wet, or windy it might be!

Date:

Astronomy

Nov. 12, 2011 Rise Set
Actual Time 6:47 AM CST 4:24 PM CST
Civil Twilight 6:15 AM CST 4:56 PM CST
Nautical Twilight 5:39 AM CST 5:32 PM CST
Astronomical Twilight 5:04 AM CST 6:07 PM CST
Moon 5:34 PM CST (11/12) 8:35 AM CST (11/12)
Length of Visible Light 10h 41m
Length of Day
9h 36m
Full, 97% of the Moon is Illuminated
Nov 12
Full
Nov 18
Last Quarter
Nov 25
New
Dec 2
First Quarter
Dec 10
Full

Hourly Weather History & Observations

Time (CST) Temp. Windchill Dew Point Humidity Pressure Visibility Wind Dir Wind Speed Gust Speed Precip Events Conditions
12:54 AM 33.1 °F 28.7 °F 26.1 °F 75% 29.61 in 10.0 mi West 4.6 mph - N/A   Clear
1:54 AM 34.0 °F 28.8 °F 27.0 °F 75% 29.61 in 10.0 mi West 5.8 mph - N/A   Clear
2:54 AM 32.0 °F 26.4 °F 26.1 °F 79% 29.62 in 10.0 mi NW 5.8 mph - N/A   Clear
3:54 AM 28.9 °F 23.9 °F 25.0 °F 85% 29.61 in 10.0 mi North 4.6 mph - N/A   Partly Cloudy
4:54 AM 28.0 °F - 25.0 °F 88% 29.62 in 10.0 mi Calm Calm - N/A   Partly Cloudy
5:54 AM 25.0 °F - 24.1 °F 96% 29.62 in 5.0 mi Calm Calm - N/A   Clear
6:13 AM 24.8 °F - 23.0 °F 93% 29.58 in 0.8 mi Calm Calm - N/A   Clear
6:17 AM 24.8 °F - 23.0 °F 93% 29.58 in 2.0 mi Calm Calm - N/A   Clear
6:24 AM 23.0 °F - 21.2 °F 93% 29.58 in 5.0 mi Calm Calm - N/A   Clear
6:54 AM 21.9 °F - 21.9 °F 100% 29.64 in 3.0 mi Calm Calm - N/A   Clear
7:25 AM 24.8 °F 20.5 °F 23.0 °F 93% 29.61 in 2.5 mi SE 3.5 mph - N/A   Clear
7:33 AM 24.8 °F - 24.8 °F 100% 29.62 in 4.0 mi Calm Calm - N/A   Clear
7:54 AM 27.0 °F - 25.0 °F 92% 29.67 in 4.0 mi Calm Calm - N/A   Clear
8:54 AM 30.9 °F - 28.0 °F 89% 29.67 in 7.0 mi Calm Calm - N/A   Clear
9:54 AM 37.0 °F 32.4 °F 30.0 °F 76% 29.67 in 10.0 mi SSE 5.8 mph - N/A   Clear
10:54 AM 39.9 °F 37.8 °F 30.0 °F 68% 29.66 in 10.0 mi SE 3.5 mph - N/A   Clear
11:54 AM 44.1 °F 40.8 °F 30.9 °F 60% 29.64 in 10.0 mi SE 5.8 mph - N/A   Clear
12:54 PM 46.0 °F 41.9 °F 32.0 °F 58% 29.63 in 10.0 mi SSE 8.1 mph - N/A   Clear
1:54 PM 48.0 °F - 32.0 °F 54% 29.61 in 10.0 mi SSE 6.9 mph - N/A   Clear
2:54 PM 48.9 °F - 32.0 °F 52% 29.60 in 10.0 mi SE 6.9 mph - N/A   Clear
3:54 PM 46.0 °F 43.1 °F 33.1 °F 61% 29.60 in 10.0 mi SE 5.8 mph - N/A   Clear
4:54 PM 43.0 °F 38.8 °F 32.0 °F 65% 29.58 in 10.0 mi SE 6.9 mph - N/A   Clear
5:54 PM 41.0 °F 37.1 °F 32.0 °F 70% 29.57 in 10.0 mi SE 5.8 mph - N/A   Clear
6:54 PM 41.0 °F 37.1 °F 33.1 °F 73% 29.55 in 9.0 mi SE 5.8 mph - N/A   Clear
7:54 PM 39.9 °F 35.1 °F 34.0 °F 79% 29.52 in 7.0 mi SE 6.9 mph - N/A   Clear
8:54 PM 39.9 °F 34.5 °F 36.0 °F 86% 29.49 in 6.0 mi SSE 8.1 mph - N/A   Clear
9:54 PM 39.0 °F 34.8 °F 37.0 °F 93% 29.46 in 4.0 mi SE 5.8 mph - N/A   Clear
10:54 PM 39.9 °F 35.8 °F 37.9 °F 93% 29.42 in 4.0 mi SE 5.8 mph - N/A   Clear
11:54 PM 39.9 °F 35.1 °F 37.9 °F 93% 29.38 in 5.0 mi SE 6.9 mph - N/A   Clear